[[{"header":{"parameterUnit":"m.s-1","parameterCategory":1,"la1":30.2991,"la2":30.254,"lo1":-89.0895,"lo2":-89.0444,"dx":0.0017,"dy":0.0017,"nx":28,"ny":28,"refTime":"2023-01-10T15:00:00:Z","depth":0,"parameterNumber":2,"parameterNumberName":"U-component_of_WINDS"},"data":[0,0,0,0,0,0,0,0,0,0,0,0,0,0,0,0,0,0,0,0,0,0,0,0,0,0,0,0,0,0,0,0,0,0,0,0,0,0,0,0,0,0,0,0,0,0,0,0,0,0,0,0,0,0,0,0,0,0,-0.5838,-0.5838,0,-0.5852,-0.5852,-0.5852,-0.5808,-0.5807,-0.5806,-0.5804,-0.5819,-0.5821,-0.5822,0,0,0,0,0,0,0,0,0,0,0,0,0,-0.5773,-0.5774,-0.5838,-0.5838,-0.5838,-0.5852,-0.5852,-0.5852,-0.5809,-0.5807,-0.5805,-0.5804,-0.5819,-0.582,-0.5822,0,0,0,0,0,0,0,0,0,0,0,0,0,-0.5796,-0.5775,-0.5838,-0.5818,-0.5816,-0.5852,-0.5852,-0.5852,-0.5809,-0.5807,-0.5805,-0.5803,-0.5818,-0.582,-0.5823,-0.5878,0,0,-0.583,-0.5831,0,0,0,0,0,0,0,0,-0.5794,-0.5798,-0.5821,-0.582,-0.5818,-0.5826,-0.5835,-0.5861,-0.5809,-0.5812,-0.5804,-0.5802,-0.5823,-0.5825,-0.5832,-0.5879,-0.5879,-0.583,-0.5832,-0.5833,-0.5834,0,0,0,0,0,0,0,-0.5793,-0.5797,-0.5844,-0.5821,-0.5819,-0.5809,-0.581,-0.5839,-0.5829,-0.5811,-0.5808,-0.5811,-0.5822,-0.583,-0.5832,-0.588,-0.583,-0.5833,-0.5834,-0.5835,-0.5971,-0.5973,0,0,0,0,0,0,-0.5794,-0.5796,-0.5843,-0.5844,-0.5801,-0.5811,-0.5812,-0.5826,-0.5828,-0.5827,-0.5812,-0.5808,-0.5827,-0.5829,-0.5832,-0.5896,-0.5833,-0.5835,-0.5837,-0.5969,-0.5972,-0.5974,0,0,0,0,0,0,-0.5793,-0.5799,-0.5842,-0.5819,-0.5824,-0.5815,-0.583,-0.5827,-0.5835,-0.5829,-0.5827,-0.5822,-0.5825,-0.5829,-0.5867,-0.5896,-0.5836,-0.5839,-0.5967,-0.597,-0.5973,-0.6025,0,0,0,0,0,0,-0.5791,-0.5798,-0.5819,-0.582,-0.5825,-0.5877,-0.5832,-0.5829,-0.5839,-0.5834,-0.5838,-0.5836,-0.5824,-0.5863,-0.5869,-0.5898,-0.5841,-0.5964,-0.5968,-0.5972,-0.602,-0.6029,-0.6037,0,0,0,0,0,-0.5789,-0.5834,-0.5821,-0.5826,-0.5851,-0.5878,-0.5881,-0.5866,-0.5842,-0.5862,-0.5859,-0.5836,-0.5892,-0.5868,-0.5874,-0.5904,-0.5962,-0.5967,-0.5972,-0.6016,-0.6027,-0.6037,0,0,0,0,0,0,-0.5836,-0.5833,-0.5819,-0.5865,-0.5872,-0.5871,-0.5896,-0.5879,-0.5893,-0.5888,-0.5869,-0.587,-0.5911,-0.5912,-0.5884,-0.5957,-0.5923,-0.5929,-0.5955,-0.5965,-0.5973,-0.5971,-0.5843,0,0,0,0,0,-0.5852,-0.5875,-0.5871,-0.5912,-0.5916,-0.5906,-0.5917,-0.5905,-0.5912,-0.5915,-0.5913,-0.5921,-0.594,-0.5953,-0.5971,-0.6021,-0.602,-0.6045,-0.6053,-0.606,-0.6065,-0.609,-0.6101,-0.599,-0.599,-0.599,0,0,-0.5885,-0.5886,-0.5902,-0.5922,-0.5926,-0.5949,-0.5909,-0.5935,-0.5952,-0.5919,-0.5953,-0.5953,-0.596,-0.6004,-0.6024,-0.6006,-0.6096,-0.6066,-0.6072,-0.6073,-0.6096,-0.6107,-0.6116,-0.5993,-0.5993,-0.5992,0,0,-0.5956,-0.596,-0.5994,-0.5999,-0.6006,-0.5999,-0.6007,-0.6009,-0.6007,-0.6042,-0.6017,-0.6037,-0.6071,-0.6077,-0.6084,-0.6158,-0.6138,-0.6165,-0.6207,-0.6232,-0.6241,-0.6249,-0.6273,-0.6283,-0.617,-0.617,-0.617,0,-0.5996,-0.603,-0.6014,-0.6042,-0.6051,-0.6022,-0.6056,-0.6062,-0.6074,-0.6081,-0.6062,-0.6103,-0.6106,-0.615,-0.6168,-0.6176,-0.6184,-0.6163,-0.6241,-0.6249,-0.6256,-0.6279,-0.6288,-0.6173,-0.6173,-0.6173,-0.6173,0,-0.6078,-0.6102,-0.6129,-0.6141,-0.6153,-0.6184,-0.6172,-0.6187,-0.6174,-0.6169,-0.6205,-0.6208,-0.6224,-0.6235,-0.6223,-0.6277,-0.6266,-0.6245,-0.6209,-0.6269,-0.6291,-0.63,-0.6178,-0.6177,-0.6176,-0.6175,0,0,-0.6178,-0.6181,-0.6191,-0.6195,-0.6201,-0.6219,-0.6249,-0.6266,-0.6278,-0.6288,-0.6311,-0.6341,-0.6321,-0.6329,-0.6318,-0.634,-0.6397,-0.6316,-0.6315,-0.6329,-0.6455,-0.647,-0.648,-0.6384,-0.6386,-0.6387,-0.6454,0,-0.6246,-0.6296,-0.6283,-0.6333,-0.6354,-0.6327,-0.6353,-0.6359,-0.6356,-0.6374,-0.637,-0.639,-0.6363,-0.6368,-0.6389,-0.6385,-0.6421,-0.6381,-0.6405,-0.6406,-0.6401,-0.6492,-0.6507,-0.657,-0.6462,-0.6464,-0.6465,0,-0.6332,-0.6345,-0.6397,-0.6398,-0.6407,-0.643,-0.6444,-0.6461,-0.6468,-0.6464,-0.6474,-0.6458,-0.6486,-0.6453,-0.6492,-0.6464,-0.6474,-0.6474,-0.6476,-0.6475,-0.6437,-0.6492,-0.659,-0.6599,-0.6478,-0.6477,-0.6476,0,-0.6397,-0.6428,-0.6462,-0.6468,-0.6471,-0.6488,-0.649,-0.6495,-0.6505,-0.6518,-0.6524,-0.654,-0.6548,-0.6561,-0.655,-0.6526,-0.659,-0.6556,-0.6586,-0.6586,-0.6599,-0.6598,-0.6697,-0.6609,-0.6609,-0.6609,-0.6608,0,-0.6474,-0.6506,-0.6491,-0.6512,-0.6548,-0.6533,-0.6568,-0.6567,-0.6572,-0.6592,-0.6571,-0.6591,-0.6575,-0.6594,-0.6585,-0.6618,-0.6623,-0.6619,-0.6616,-0.662,-0.662,-0.6624,-0.6618,-0.6611,-0.6611,-0.661,-0.661,0,-0.6551,-0.6543,-0.6578,-0.6579,-0.658,-0.6606,-0.6606,-0.6625,-0.6621,-0.6647,-0.6652,-0.6645,-0.6665,-0.6656,-0.6677,-0.6671,-0.6713,-0.6705,-0.671,-0.6707,-0.6738,-0.6734,-0.6842,-0.6854,-0.676,-0.6761,-0.6762,0,-0.6599,-0.6623,-0.6626,-0.6638,-0.6642,-0.6662,-0.6672,-0.6659,-0.6671,-0.668,-0.6698,-0.6717,-0.6731,-0.6764,-0.6761,-0.6777,-0.6768,-0.6805,-0.677,-0.6773,-0.6766,-0.6764,-0.6766,-0.6811,-0.6812,-0.6813,-0.6814,0,-0.6685,-0.668,-0.6695,-0.671,-0.6723,-0.6735,-0.6744,-0.6755,-0.6742,-0.6756,-0.6777,-0.6787,-0.6809,-0.6827,-0.6842,-0.6844,-0.6826,-0.6825,-0.6833,-0.6835,-0.6836,-0.6834,-0.6727,-0.6822,-0.6821,-0.6821,-0.682,-0.682,-0.6747,-0.6767,-0.6772,-0.679,-0.6796,-0.6805,-0.6823,-0.6821,-0.6838,-0.6854,-0.6845,-0.6869,-0.6875,-0.6892,-0.6897,-0.6915,-0.69,-0.6912,-0.6914,-0.6917,-0.692,-0.6836,-0.6918,-0.6918,-0.6917,-0.6917,-0.6917,0,-0.683,-0.6832,-0.6849,-0.6862,-0.6877,-0.686,-0.687,-0.6883,-0.6903,-0.6911,-0.6925,-0.6948,-0.6966,-0.6964,-0.698,-0.6995,-0.6987,-0.7,-0.6997,-0.6997,-0.6933,-0.6924,-0.7005,-0.7005,-0.7005,-0.7005,-0.7005,-0.7005,-0.6874,-0.6906,-0.6902,-0.6936,-0.6938,-0.696,-0.6967,-0.6975,-0.6981,-0.7007,-0.7022,-0.7021,-0.7024,-0.7041,-0.7056,-0.7055,-0.7061,-0.7076,-0.7072,-0.7011,-0.7002,-0.6994,-0.6985,-0.7078,-0.7078,-0.7135,-0.7135,-0.7136]},{"header":{"parameterUnit":"m.s-1","parameterCategory":1,"la1":30.2991,"la2":30.254,"lo1":-89.0895,"lo2":-89.0444,"dx":0.0017,"dy":0.0017,"nx":28,"ny":28,"refTime":"2023-01-10T15:00:00:Z","depth":0,"parameterNumber":3,"parameterNumberName":"V-component_of_WINDS"},"data":[0,0,0,0,0,0,0,0,0,0,0,0,0,0,0,0,0,0,0,0,0,0,0,0,0,0,0,0,0,0,0,0,0,0,0,0,0,0,0,0,0,0,0,0,0,0,0,0,0,0,0,0,0,0,0,0,0,0,1.8447,1.8447,0,1.8474,1.8474,1.8475,1.8523,1.8524,1.8525,1.8526,1.8552,1.8552,1.8552,0,0,0,0,0,0,0,0,0,0,0,0,0,1.8435,1.8435,1.8447,1.8447,1.8447,1.8474,1.8474,1.8475,1.8523,1.8524,1.8526,1.8527,1.8552,1.8552,1.8552,0,0,0,0,0,0,0,0,0,0,0,0,0,1.8449,1.8435,1.8446,1.8475,1.8478,1.8474,1.8474,1.8475,1.8523,1.8524,1.8526,1.8527,1.8552,1.8552,1.8552,1.8522,0,0,1.8551,1.8551,0,0,0,0,0,0,0,0,1.8448,1.845,1.847,1.8473,1.8476,1.8497,1.848,1.8491,1.8523,1.8506,1.8526,1.8528,1.8532,1.8534,1.8536,1.8523,1.8524,1.8551,1.8551,1.8551,1.8551,0,0,0,0,0,0,0,1.8447,1.8449,1.8457,1.847,1.8474,1.8486,1.8489,1.8482,1.8511,1.8507,1.8511,1.8514,1.8534,1.8536,1.8537,1.8525,1.8551,1.8551,1.8551,1.855,1.8491,1.849,0,0,0,0,0,0,1.8442,1.8448,1.8457,1.8458,1.8465,1.8485,1.8489,1.8489,1.8511,1.8516,1.8512,1.8516,1.8536,1.8537,1.8538,1.8506,1.8551,1.855,1.855,1.8493,1.8491,1.8489,0,0,0,0,0,0,1.8442,1.8443,1.8455,1.8454,1.8456,1.8484,1.8483,1.8488,1.849,1.8515,1.852,1.8509,1.8537,1.8538,1.8526,1.8508,1.855,1.855,1.8494,1.8492,1.849,1.8441,0,0,0,0,0,0,1.8442,1.8442,1.8431,1.8453,1.8456,1.8443,1.8482,1.8488,1.849,1.8495,1.8513,1.8518,1.8538,1.8526,1.8526,1.8508,1.855,1.8496,1.8493,1.8491,1.8444,1.8437,1.8431,0,0,0,0,0,1.8441,1.8415,1.8431,1.8431,1.8443,1.8442,1.8444,1.8469,1.8488,1.8478,1.8494,1.8517,1.851,1.8525,1.8525,1.8506,1.8497,1.8494,1.8491,1.8447,1.8439,1.8431,0,0,0,0,0,0,1.8389,1.8419,1.8436,1.8417,1.8427,1.845,1.8437,1.8459,1.8462,1.8467,1.8497,1.8501,1.8485,1.8494,1.8511,1.848,1.8507,1.8504,1.8474,1.8466,1.846,1.8458,1.855,0,0,0,0,0,1.8376,1.8373,1.8399,1.8379,1.8384,1.841,1.841,1.8429,1.844,1.8444,1.8459,1.8468,1.8469,1.8468,1.8469,1.8446,1.8451,1.8433,1.8427,1.8422,1.8418,1.8408,1.8401,1.8479,1.8479,1.8479,0,0,1.8348,1.8364,1.836,1.837,1.8379,1.8376,1.8413,1.8407,1.8404,1.8443,1.8433,1.8444,1.8457,1.844,1.8433,1.8447,1.8398,1.8417,1.8413,1.8413,1.8404,1.8397,1.839,1.8477,1.8477,1.8478,0,0,1.8295,1.8306,1.8292,1.8302,1.8317,1.8335,1.8331,1.8352,1.8362,1.8352,1.8382,1.8379,1.8378,1.8386,1.839,1.8343,1.8365,1.8342,1.8308,1.8298,1.8292,1.8287,1.8271,1.8264,1.8339,1.8339,1.8339,0,1.8258,1.8254,1.8282,1.8275,1.8279,1.8315,1.8301,1.8309,1.8323,1.8325,1.8341,1.8342,1.8353,1.8339,1.8327,1.8329,1.8327,1.834,1.8291,1.8286,1.8281,1.8266,1.826,1.8336,1.8336,1.8337,1.8337,0,1.8208,1.8205,1.8191,1.8206,1.8208,1.8197,1.8224,1.8223,1.8242,1.8258,1.8249,1.8264,1.8269,1.8267,1.8285,1.8256,1.8265,1.8285,1.8314,1.827,1.8257,1.8251,1.8332,1.8333,1.8334,1.8335,0,0,1.8122,1.8154,1.8148,1.8156,1.8176,1.8174,1.8165,1.8172,1.8171,1.818,1.8174,1.8173,1.8193,1.8198,1.8217,1.8208,1.817,1.823,1.8231,1.8219,1.8141,1.8125,1.8118,1.8185,1.8184,1.8184,1.814,0,1.8074,1.8061,1.8088,1.8069,1.8067,1.8102,1.8095,1.8106,1.8121,1.8122,1.8138,1.8138,1.8164,1.8167,1.816,1.8176,1.8155,1.818,1.818,1.818,1.8176,1.8111,1.8094,1.8053,1.8135,1.8134,1.8133,0,1.8015,1.8023,1.8004,1.8027,1.8027,1.802,1.8029,1.8029,1.8043,1.8055,1.8061,1.8084,1.8078,1.8105,1.8097,1.8114,1.8115,1.8124,1.8123,1.8124,1.8154,1.8111,1.804,1.8034,1.8125,1.8126,1.8126,0,1.7956,1.7961,1.7951,1.7956,1.7982,1.7977,1.7988,1.8003,1.8006,1.8014,1.8016,1.8023,1.8026,1.8031,1.8055,1.8073,1.8044,1.8074,1.8054,1.8054,1.8046,1.8047,1.7975,1.8047,1.8047,1.8047,1.8047,0,1.7899,1.7886,1.7925,1.7919,1.7906,1.7937,1.7923,1.7937,1.7951,1.7948,1.7979,1.7976,1.8008,1.8008,1.8027,1.8018,1.8019,1.8029,1.8034,1.8026,1.8025,1.8028,1.8032,1.8045,1.8046,1.8046,1.8046,0,1.783,1.7855,1.7847,1.7873,1.7879,1.7869,1.7891,1.7887,1.7905,1.7901,1.7902,1.7929,1.7932,1.7957,1.7964,1.7977,1.7961,1.7971,1.7956,1.796,1.7939,1.7941,1.7867,1.786,1.7935,1.7934,1.7934,0,1.7792,1.7784,1.781,1.7811,1.782,1.7821,1.7825,1.7854,1.7857,1.7873,1.7867,1.7872,1.7878,1.788,1.79,1.7906,1.7918,1.7891,1.7919,1.7912,1.7918,1.7919,1.7918,1.7885,1.7885,1.7884,1.7883,0,1.7723,1.7737,1.7741,1.775,1.7754,1.7762,1.7773,1.7771,1.7804,1.7806,1.7809,1.7814,1.7822,1.7827,1.7837,1.7848,1.7871,1.7875,1.7871,1.7863,1.7855,1.786,1.7941,1.7876,1.7877,1.7877,1.7878,1.7878,1.767,1.7664,1.7682,1.7686,1.7697,1.7707,1.7704,1.7723,1.7726,1.7736,1.7753,1.7754,1.777,1.7787,1.7796,1.7797,1.781,1.7804,1.7803,1.7801,1.7797,1.7854,1.7799,1.7799,1.7799,1.7799,1.7799,0,1.7603,1.7617,1.762,1.7634,1.7638,1.7661,1.7673,1.7675,1.7676,1.7689,1.7694,1.7699,1.7704,1.7726,1.7733,1.773,1.7741,1.7731,1.7732,1.7735,1.7784,1.7787,1.7723,1.7723,1.7723,1.7723,1.7723,1.7723,1.7569,1.7561,1.7577,1.7576,1.759,1.7592,1.7597,1.7606,1.7617,1.7621,1.7626,1.7641,1.7657,1.7667,1.7673,1.7679,1.7681,1.7668,1.7677,1.7723,1.7731,1.7738,1.7741,1.7668,1.7667,1.7628,1.7627,1.7627]}]]